#timestamp,LO_Frequency,Hit,StdDev 
1678676415.5,286047002.6,N
1678676435.4,286047000.2,N
1678676455.2,286047000.6,N
1678676475.0,286047000.3,N
1678676475.9,286047000.3,N
1678676495.8,286047002.5,N
1678676515.6,286047001.8,N
1678676535.4,286047003.5,N
1678676555.3,286047003.8,N
1678676575.1,286047004.4,N
1678676595.8,286047001.8,N
1678676615.7,286047004.3,N
1678676635.5,286047003.6,N
1678676655.3,286047005.1,N
1678676675.2,286047005.5,N
1678676695.0,286047002.9,N
1678676695.9,286047002.9,N
1678676715.7,286047003.7,N
1678676735.6,286047004.4,N
1678676755.4,286047004.3,N
1678676775.2,286047003.5,N
1678676795.1,286047003.2,N
1678676796.0,286047003.2,N
1678676815.8,286047005.2,N
1678676835.6,286047007.2,Y
1678676855.5,286047003.6,P
1678676875.3,286047003.4,P
1678676895.1,286047005.9,P
1678676915.9,286047003.6,N
1678676935.7,286047001.8,N
1678676955.5,286047003.2,N
1678676975.4,286047006.0,Y
1678676995.2,286047002.5,P
1678677015.0,286047002.0,P
1678677015.9,286047002.0,P
1678677035.8,286047007.9,Y
1678677055.6,286047001.0,P
1678677075.4,286046998.0,N
1678677095.3,286046995.2,N
1678677115.1,286046993.7,N
1678677135.8,286046996.4,N
1678677155.7,286046993.9,N
1678677175.5,286046994.8,N
1678677195.3,286046993.6,N
1678677215.2,286046994.4,N
1678677235.9,286046994.8,N
1678677255.7,286046994.8,N
1678677275.6,286046993.3,N
1678677295.4,286046996.3,N
1678677315.2,286046996.0,N
1678677335.1,286046995.8,N
1678677336.0,286046995.8,N
1678677355.8,286046996.1,N
1678677375.6,286046995.6,N
1678677395.5,286046995.9,N
1678677415.3,286046995.4,N
1678677435.1,286046997.6,N
1678677455.9,286046997.5,N
1678677475.7,286046997.0,N
1678677495.5,286046997.0,N
1678677515.3,286046996.6,N
1678677535.2,286046996.8,N
1678677555.0,286046995.6,N
1678677555.9,286046995.6,N
1678677575.8,286046996.3,N
1678677595.6,286046995.2,N
1678677615.4,286046995.6,N
1678677635.2,286046997.4,N
1678677655.1,286046999.5,N
1678677656.0,286046999.5,N
1678677675.8,286046997.0,N
1678677695.6,286046996.7,N
1678677715.5,286046996.8,N
1678677735.3,286046999.6,N
1678677755.1,286046999.3,N
1678677775.9,286046999.6,N
1678677795.7,286046998.7,N
1678677815.5,286046999.3,N
1678677835.4,286046998.9,N
1678677855.2,286046999.3,N
1678677875.0,286046996.9,N
1678677875.9,286046996.9,N
1678677895.8,286046996.9,N
1678677915.6,286046999.3,N
1678677935.4,286046998.7,N
1678677955.3,286046999.4,N
1678677975.1,286046999.2,N
1678677995.8,286046998.9,N
1678678015.7,286046999.5,N
1678678035.5,286046996.8,N
1678678055.3,286046999.0,N
1678678075.2,286046999.6,N
1678678095.0,286046999.6,N
1678678095.9,286046999.6,N
1678678115.7,286046999.3,N
1678678135.6,286046999.6,N
1678678155.4,286046999.1,N
1678678175.2,286046998.7,N
1678678195.1,286047001.1,N
1678678196.0,286047001.1,N
1678678215.8,286047000.4,N
1678678235.6,286047000.3,N
1678678255.5,286047001.2,N
1678678275.3,286046999.7,N
1678678295.1,286046999.8,N
1678678315.9,286046999.8,N
1678678335.7,286046999.9,N
1678678355.5,286046999.9,N
1678678375.4,286047000.1,N
1678678395.2,286047000.2,N
1678678415.0,286047002.8,N
1678678415.9,286047002.8,N
1678678435.8,286047002.2,N
1678678455.6,286047002.6,N
1678678475.4,286047002.1,N
1678678495.3,286047001.5,N
1678678515.1,286047004.1,Y
1678678535.8,286047005.7,P
1678678555.7,286047005.3,N
1678678575.5,286047003.4,N
1678678595.3,286047003.4,N
1678678615.2,286047003.0,N
1678678635.9,286047004.6,N
1678678655.7,286047005.1,N
1678678675.6,286047005.7,Y
1678678695.4,286047000.1,P
1678678715.2,286047003.5,N
1678678735.1,286047003.6,N
1678678736.0,286047003.6,N
1678678755.8,286047003.2,N
1678678775.6,286047004.3,Y
1678678795.5,286046998.1,P
1678678815.3,286047000.3,N
1678678835.1,286047000.3,N
1678678855.9,286047000.6,N
1678678875.7,286047001.1,N
1678678895.5,286047001.1,N
1678678915.4,286047004.2,Y
1678678935.2,286047000.3,P
1678678955.0,286046998.8,P
1678678955.9,286046998.8,N
1678678975.8,286046996.6,Y
1678678995.6,286046996.6,P
1678679015.4,286046997.2,N
1678679035.3,286046997.4,N
1678679055.1,286046999.6,N
1678679075.8,286046999.4,N
1678679095.7,286046996.6,N
1678679115.5,286046999.2,N
1678679135.3,286046999.5,N
1678679155.2,286046999.5,N
1678679175.0,286046999.6,N
1678679175.9,286046999.6,N
1678679195.7,286046996.6,N
1678679215.6,286046999.2,N
1678679235.4,286046999.2,N
1678679255.2,286046996.6,N
1678679275.1,286046999.5,N
1678679276.0,286046999.5,N
1678679295.8,286047001.2,N
1678679315.6,286047001.1,N
1678679335.5,286047000.9,N
1678679355.3,286047000.0,N
1678679375.1,286047002.4,N
1678679395.9,286047002.8,N
1678679415.7,286047000.4,N
1678679435.5,286047002.0,N
1678679455.4,286047000.2,N
1678679475.2,286047001.8,N
1678679495.0,286047004.3,N
1678679495.9,286047004.3,N
1678679515.8,286047001.8,N
1678679535.6,286047001.9,N
1678679555.4,286047001.4,N
1678679575.3,286047001.4,N
1678679595.1,286047001.4,N
1678679615.8,286047003.9,N
1678679635.7,286047004.0,N
1678679655.5,286047004.0,N
1678679675.3,286047003.2,N
1678679695.2,286047004.0,N
1678679715.9,286047003.6,N
1678679735.7,286047004.3,N
1678679755.6,286047003.6,N
1678679775.4,286047004.1,N
1678679795.2,286047003.8,N
1678679815.1,286047006.0,Y
1678679816.0,286047006.0,P
1678679835.8,286047001.8,N
1678679855.6,286047001.4,N
1678679875.5,286047002.0,N
1678679895.3,286047002.5,N
1678679915.1,286047003.9,N
1678679935.9,286047003.8,N
1678679955.7,286047003.5,N
1678679975.5,286047005.6,Y
1678679995.4,286047002.2,P
